Theta_e
313 313 313 314 314 315 315 315 316 316 316 316 316 315 315 316 313 301 295 303 306 314 314 306 305 297 298 296 300 307 297 295 297 300 303 299 299 296 294 295 295 297 295 296 298
313 313 313 313 313 314 315 315 315 315 315 316 315 314 315 314 302 295 303 309 311 312 305 302 299 296 291 297 302 300 295 298 298 296 294 298 298 296 295 293 292 292 295 296 295
313 313 313 313 313 314 314 314 314 315 315 315 314 314 314 311 296 294 307 310 309 309 306 303 300 297 293 298 300 298 295 297 294 294 294 297 296 296 295 292 294 293 293 294 293
312 312 312 313 313 313 314 314 314 314 314 314 314 313 314 303 287 296 306 307 307 305 302 300 299 298 296 295 300 294 298 295 296 293 293 293 292 294 294 295 295 295 295 294 293
313 312 312 312 313 313 313 313 314 313 313 313 313 312 303 289 290 297 306 302 299 298 297 298 297 298 294 297 298 294 296 293 292 291 290 291 291 292 293 296 294 293 295 294 294
313 313 313 313 313 313 313 313 313 313 311 312 313 311 293 285 295 297 297 298 296 295 295 297 297 298 296 294 295 293 293 291 291 291 290 289 290 290 293 295 295 293 291 292 293
314 313 313 313 314 313 313 312 312 311 310 310 311 306 290 288 293 294 297 295 296 295 295 296 294 296 294 292 292 292 289 291 290 290 289 287 290 287 291 291 293 293 290 291 293
315 314 314 314 314 313 312 310 310 309 309 309 310 297 285 294 292 294 294 294 297 297 295 296 297 294 294 292 289 287 286 285 290 288 287 287 288 293 289 290 289 288 288 289 290
315 315 315 315 315 314 311 310 308 307 306 306 296 289 286 298 292 292 292 293 294 294 294 296 296 291 291 287 286 287 282 285 287 288 286 285 285 289 290 288 287 286 287 288 289
316 315 315 315 315 314 312 312 307 305 301 297 293 286 288 287 292 292 291 293 292 292 293 292 290 286 285 285 281 282 282 284 284 285 285 282 283 287 289 286 287 286 286 287 289
317 316 316 316 315 313 306 298 290 292 293 287 286 286 289 291 293 292 293 292 290 289 284 286 282 280 283 285 284 283 281 281 283 285 284 283 283 286 288 286 287 289 287 287 290
317 316 316 315 315 311 298 292 289 289 286 292 290 289 290 290 287 290 294 287 287 282 285 282 278 284 286 285 284 282 280 280 283 285 283 282 282 287 289 289 290 290 289 290 289
314 315 316 315 315 299 292 292 297 295 285 290 290 289 288 290 285 287 291 288 284 283 282 279 281 286 285 283 282 281 280 281 281 284 284 281 280 284 289 289 290 291 291 291 291
311 312 312 315 306 300 292 297 298 295 277 285 285 288 290 290 285 291 290 287 283 282 283 281 283 283 280 282 283 279 283 283 282 281 276 281 275 282 288 289 289 289 289 290 290
308 309 310 313 301 299 296 297 297 293 272 286 284 292 290 286 287 287 290 286 281 281 281 278 279 279 280 281 283 280 284 282 281 278 277 277 275 280 285 287 289 289 288 289 289
305 306 307 310 303 300 298 296 294 280 271 280 284 283 283 285 285 287 287 288 287 282 281 278 282 281 280 282 282 283 281 281 280 278 272 277 278 277 284 287 287 288 289 289 288
302 303 303 307 304 300 300 296 286 274 284 278 277 282 281 281 282 283 282 280 278 272 275 278 277 279 282 278 281 280 278 274 272 270 273 276 276 280 286 288 288 288 288 288 288
301 301 300 306 305 302 300 290 283 279 278 285 281 281 278 281 280 281 279 276 280 280 274 274 273 277 280 279 277 277 278 275 270 274 277 277 276 283 288 288 288 288 289 288 288
300 294 295 302 303 302 294 284 285 287 290 284 281 277 273 280 279 278 277 276 281 281 277 274 277 278 280 280 280 277 275 278 274 271 272 276 279 286 288 287 287 288 287 287 288
292 290 290 302 301 298 287 287 288 294 288 286 281 280 272 273 275 277 277 280 281 282 281 280 274 277 278 279 279 279 280 274 273 266 267 276 277 280 284 286 286 286 286 287 287
290 286 292 299 298 289 283 283 287 293 294 289 287 284 282 282 278 275 277 281 284 281 281 276 278 275 276 274 275 275 274 276 277 277 273 272 277 283 286 287 286 287 287 286 287
288 276 295 295 285 285 283 282 290 289 294 292 290 290 286 284 281 280 279 283 285 283 280 281 276 271 273 276 277 276 277 277 273 273 275 276 277 286 286 287 287 288 289 287 287
283 281 293 292 280 282 284 283 287 287 287 286 286 289 292 289 284 283 282 287 286 283 282 283 276 266 272 274 275 272 277 278 278 277 272 272 277 284 285 286 286 287 288 289 289
282 274 283 285 286 283 280 282 283 285 286 288 286 285 286 286 290 286 284 284 284 285 289 286 281 274 276 275 272 268 271 277 275 270 276 279 279 282 284 283 285 286 288 289 290
283 274 277 272 280 281 281 281 280 280 285 286 286 286 285 283 285 285 286 286 283 285 283 283 277 278 280 279 276 275 270 274 276 279 276 281 280 284 287 287 288 288 288 289 289
280 279 276 277 273 276 279 280 279 280 281 280 283 286 285 283 285 283 285 284 284 281 282 281 276 277 275 280 280 279 278 275 278 279 279 281 279 284 286 286 286 288 288 288 288
286 284 282 276 274 275 272 276 278 279 281 284 283 282 281 283 285 286 289 289 288 281 280 278 277 277 277 280 278 274 278 279 277 278 281 277 283 285 285 286 288 290 291 291 288
Wind_Speed
15 14 14 14 14 14 13 13 13 12 12 12 13 11 10 11 13 2 4 1 3 7 7 5 3 2 2 3 4 1 1 5 6 8 11 3 5 2 3 6 2 2 5 3 16
16 15 14 14 13 14 14 14 13 12 12 12 12 10 10 8 3 6 2 3 5 4 3 2 3 5 2 5 4 4 4 7 1 2 2 2 3 8 5 3 2 4 5 10 11
16 16 16 16 15 15 15 15 14 14 13 13 11 9 10 3 2 2 4 6 4 2 4 2 4 5 3 3 4 4 5 2 1 2 4 4 4 5 8 4 8 10 11 10 7
15 15 16 17 16 16 16 16 16 15 14 12 10 9 9 3 4 2 7 5 5 2 3 4 3 3 4 4 5 3 6 1 3 4 4 3 8 3 7 7 2 6 18 14 11
14 15 15 15 15 16 16 16 16 14 14 12 7 7 5 2 8 1 3 4 2 1 5 4 5 2 2 3 3 4 5 1 1 3 3 4 6 6 6 9 4 6 12 14 13
16 18 17 17 17 17 17 17 15 14 12 9 6 3 1 5 3 3 4 2 3 1 4 4 3 6 2 2 1 2 4 4 2 2 3 2 5 1 7 9 10 8 12 12 14
16 17 18 19 19 20 18 15 14 13 10 6 4 2 3 12 2 1 3 1 2 1 2 2 5 3 6 1 1 3 5 6 6 5 4 2 9 13 11 5 10 12 10 11 14
15 16 17 19 21 21 19 16 14 10 7 5 3 2 8 1 1 2 4 1 0 2 2 3 3 2 2 4 3 1 1 4 1 7 2 3 11 4 3 11 12 9 9 10 12
14 16 18 20 21 21 19 15 9 4 3 1 2 3 9 1 1 0 2 1 1 1 2 3 1 2 1 2 2 2 4 5 4 8 3 6 9 6 7 8 9 9 9 11 10
14 16 18 20 21 22 20 12 3 2 2 1 3 3 2 2 2 1 0 1 2 2 2 2 2 2 1 3 6 6 4 5 7 5 3 4 18 16 14 7 10 10 10 11 13
15 16 18 20 22 21 11 3 7 3 3 9 6 4 2 1 2 2 1 1 2 2 5 2 4 8 10 7 1 3 3 5 4 3 4 9 14 19 13 9 14 16 13 14 17
15 16 18 20 22 16 5 7 3 3 10 8 6 3 2 2 2 4 3 5 5 6 5 3 8 5 4 2 4 3 3 6 2 3 3 7 15 20 18 15 18 18 17 17 10
16 18 17 20 20 4 4 4 2 3 3 7 4 3 3 6 5 6 7 5 5 6 7 7 3 4 4 4 4 4 5 4 3 3 5 6 11 9 7 13 14 13 13 17 16
19 18 19 19 3 4 1 5 3 1 5 7 3 1 3 2 4 2 3 3 2 10 6 6 3 4 3 4 7 4 3 2 1 1 5 2 9 7 10 8 6 10 12 12 15
20 21 19 10 5 4 1 4 4 2 6 2 3 2 2 4 2 0 1 1 5 6 6 6 6 4 4 5 6 6 2 3 2 2 3 3 3 11 5 9 8 9 8 8 9
20 20 21 4 2 3 4 2 2 8 11 4 3 4 3 5 3 2 1 1 1 3 2 0 1 2 3 3 2 6 4 4 3 2 3 8 8 6 6 5 2 1 6 8 8
21 20 16 6 3 4 4 0 2 6 4 6 5 4 4 6 6 7 5 4 6 5 5 1 4 1 3 5 5 1 5 1 4 2 8 1 4 8 11 6 4 6 4 6 6
21 23 11 7 2 4 3 1 11 5 7 2 4 3 5 6 5 7 5 3 8 2 4 7 6 9 6 5 6 6 5 7 9 5 4 3 9 9 8 4 2 5 7 6 6
24 3 5 5 7 4 3 10 8 7 5 6 3 3 5 3 4 4 7 6 9 15 11 6 3 1 2 1 4 6 6 2 5 2 4 6 8 11 7 6 6 9 8 9 8
7 8 7 6 10 4 5 24 11 10 5 3 7 8 7 5 5 7 7 6 5 8 3 5 1 1 2 1 2 3 1 2 3 3 5 6 6 8 5 8 7 7 10 9 8
5 6 3 2 2 3 15 13 10 8 5 8 7 7 8 9 9 7 7 6 6 4 4 4 6 1 4 8 10 4 3 2 2 5 6 2 8 8 9 8 10 11 8 10 10
3 5 3 1 4 4 16 6 6 7 14 16 7 10 7 8 5 6 12 10 7 10 11 8 6 6 11 1 1 2 7 6 6 6 4 3 11 4 4 5 6 6 7 7 7
4 5 1 2 8 13 6 5 4 9 8 8 11 12 11 13 6 7 6 4 9 10 7 5 4 2 7 6 5 5 7 5 3 3 9 6 8 1 2 1 2 3 3 4 7
3 4 2 3 6 7 11 15 18 5 8 10 9 1 4 11 14 6 7 1 2 4 9 5 2 8 12 8 7 5 7 9 7 5 5 20 4 1 4 1 2 3 4 7 7
4 5 6 4 4 14 12 9 11 10 6 3 10 18 9 8 8 11 8 3 3 3 5 6 6 7 14 1 3 7 6 13 18 22 11 18 14 14 13 10 8 9 8 8 10
3 3 5 4 3 8 11 3 18 20 13 20 8 11 6 18 18 13 7 8 6 3 7 5 7 5 12 9 9 5 9 14 18 11 22 21 19 3 5 5 6 10 9 11 12
3 2 3 4 7 9 4 6 8 11 7 8 11 13 17 11 5 10 8 4 1 9 10 9 4 7 17 5 4 3 26 12 9 10 15 18 24 7 8 14 19 22 15 15 13
Wind_Direction
9 5 2 358 348 344 340 336 332 330 324 317 313 322 322 323 315 223 240 359 326 337 328 288 307 236 173 243 235 160 237 227 231 234 247 183 142 43 193 114 56 64 125 194 136
4 1 355 354 346 340 335 332 329 322 318 312 313 315 315 324 286 243 113 337 333 351 308 324 297 159 213 223 198 153 193 223 268 358 321 254 152 155 139 125 168 83 49 117 131
360 354 350 346 345 340 333 330 326 318 318 319 313 314 320 308 340 234 349 333 313 280 241 267 278 181 237 176 208 212 219 258 356 12 334 274 172 182 139 208 207 184 162 156 152
354 352 347 343 343 336 330 328 324 320 320 314 303 312 320 287 264 150 343 329 297 232 242 217 249 176 214 211 204 246 250 237 331 11 1 341 303 194 179 208 218 190 175 162 168
352 347 344 340 336 331 325 322 317 314 312 305 299 310 321 256 248 54 347 325 268 148 252 250 177 201 282 262 155 208 308 5 134 359 308 325 270 248 251 230 216 109 156 176 178
346 342 340 337 333 329 322 316 310 308 307 300 285 297 259 254 112 31 348 85 65 51 266 272 224 152 257 37 227 336 297 287 232 238 255 263 267 68 249 233 231 200 177 190 187
341 335 333 330 330 329 320 311 302 302 296 286 272 248 273 243 103 37 22 153 168 131 253 307 315 267 138 307 354 323 316 290 231 206 224 138 276 233 219 185 215 206 209 189 200
334 327 327 325 328 328 318 316 305 298 285 255 216 235 246 130 214 34 331 203 168 197 223 268 300 83 351 137 129 180 222 286 35 131 201 152 264 264 202 194 220 219 207 207 198
329 324 327 328 328 327 315 317 301 261 261 241 137 192 268 117 167 218 26 226 293 166 215 266 20 143 45 157 31 207 244 233 274 188 132 182 274 273 355 197 229 223 215 213 215
324 323 327 329 330 327 319 317 102 324 210 226 289 3 232 237 124 334 152 271 241 134 88 136 78 116 37 160 222 193 209 253 240 194 168 224 264 269 273 281 253 230 229 214 211
323 324 328 331 333 325 345 22 18 11 357 193 199 229 165 94 89 219 195 213 189 224 166 185 130 210 208 216 336 107 215 244 257 198 209 231 259 269 262 242 246 236 223 220 216
326 326 328 329 334 326 21 72 149 206 304 256 210 243 166 169 192 205 158 172 173 200 137 70 226 195 127 161 204 209 248 263 260 180 204 281 267 268 260 240 229 225 223 223 210
355 348 330 327 327 23 70 128 170 169 265 291 190 200 187 152 236 212 162 188 194 178 197 173 199 136 167 170 175 216 201 236 249 301 232 317 282 259 270 240 243 227 218 216 212
352 352 351 330 41 320 44 172 171 168 49 265 232 212 125 220 255 131 189 171 190 205 181 229 181 176 165 203 156 224 183 178 252 21 247 180 284 287 277 264 226 231 217 209 207
340 341 343 333 289 320 115 154 147 80 339 223 183 123 102 166 149 192 137 72 194 189 121 235 160 173 176 211 174 217 136 135 137 201 350 243 266 270 253 263 243 234 227 224 201
333 332 334 313 198 216 127 131 70 40 254 267 143 179 144 188 191 153 186 311 202 129 83 194 336 211 192 83 15 144 99 59 51 83 320 218 192 252 224 240 310 354 211 213 199
326 321 316 282 250 161 116 156 4 177 321 267 195 171 206 191 192 166 171 192 170 93 229 172 215 159 144 90 4 162 102 338 346 6 227 307 175 259 272 255 229 211 183 175 164
320 318 276 238 213 121 96 51 225 214 230 275 155 157 200 166 229 185 169 231 232 209 107 168 292 169 183 192 182 188 178 167 203 200 247 20 233 253 242 263 212 173 163 153 166
324 286 270 236 178 139 129 234 226 186 185 182 127 167 294 218 164 152 210 215 210 175 177 138 264 49 46 17 134 191 205 250 100 53 53 224 274 295 225 193 167 168 162 179 182
316 299 259 251 161 144 200 231 230 203 162 209 220 172 199 224 163 172 188 216 219 186 137 209 55 7 328 291 247 187 208 107 352 156 249 271 260 235 231 215 216 220 207 200 182
294 290 286 30 142 178 218 222 213 226 198 208 202 246 220 194 187 201 216 275 188 136 97 138 123 322 46 204 184 161 211 187 138 169 183 262 258 227 228 222 205 226 216 201 191
282 272 354 14 203 213 232 193 222 237 221 230 202 217 200 186 225 242 212 214 168 155 168 208 148 177 205 198 25 233 202 169 137 234 234 170 258 256 222 194 191 228 220 202 183
242 253 204 259 227 227 244 264 264 252 207 199 217 211 198 231 228 206 233 258 162 164 142 193 228 72 341 354 348 203 201 203 128 79 216 150 263 18 350 7 74 153 120 173 193
258 284 239 206 256 270 259 260 256 217 261 230 233 188 179 235 226 231 225 199 84 115 70 129 238 185 219 196 138 191 210 198 147 167 180 231 251 345 187 195 169 204 238 220 205
224 236 200 276 233 240 251 273 281 278 231 236 237 235 221 240 218 224 203 185 35 65 62 107 244 304 287 271 151 196 180 189 206 220 196 252 218 230 262 276 263 222 221 218 219
223 240 320 260 292 286 292 265 245 257 249 272 263 269 258 239 243 256 195 184 199 122 152 169 210 129 270 257 221 239 240 217 217 231 245 257 262 11 247 267 294 271 237 226 223
300 249 202 258 274 293 271 272 301 332 297 284 289 300 285 287 342 299 299 312 193 170 180 160 193 180 252 167 115 260 236 219 214 210 218 235 250 219 240 242 244 250 244 247 231